Home   Weather   Melbourne Gardens   Past weeks
Flag for USA

Past Weather in Melbourne Gardens, Florida, USA — Yesterday and Last 2 Weeks

Now
68 °F

Clear.


Feels Like: 68 °F
Forecast: 80 / 60 °F
Wind: 6 mph from East

Location: Melbourne International Airport

Current Time: Apr 22, 2019 at 12:15:39 am

Latest Report: Apr 21, 2019 at 10:53 pm


Visibility: 10 mi

Pressure: 30.16 "Hg

Humidity: 57%

Dew Point: 52 °F

Location of Melbourne GardensLocation

Past Weather in Melbourne Gardens — Graph

°F

Melbourne Gardens Temperature Yesterday

Maximum temperature yesterday: 77 °F (at 2:53 pm)
Minimum temperature yesterday: 55 °F (at 6:53 am)
Average temperature yesterday: 67 °F

High & Low Weather Summary for the Past Weeks

 TemperatureHumidityPressure
High89 °F (Apr 14, 12:53 pm)93% (Apr 7, 6:53 am)30.20 "Hg (Apr 7, 6:53 am)
Low55 °F (Apr 21, 6:53 am)29% (Apr 15, 5:53 pm)29.73 "Hg (Apr 9, 4:53 pm)
Average75 °F71%29.97 "Hg
* Reported Apr 6 10:53 pm — Apr 21 10:53 pm, Melbourne Gardens. Weather by CustomWeather, © 2019

Note: Actual official high and low records may vary slightly from our data, if they occured in-between our weather recording intervals... More about our weather records

Advertising

Melbourne Gardens Weather History for the Previous 24 Hours

Scroll right to see more
 ConditionsComfort  
Time TempWeatherWind HumidityBarometerVisibility
10:53 pm
Sun, Apr 21
68 °FClear.6 mph57%30.16 "Hg10 mi
9:53 pm68 °FClear.7 mph55%30.14 "Hg10 mi
8:53 pm68 °FClear.8 mph55%30.12 "Hg10 mi
7:53 pm69 °FClear.7 mph49%30.10 "Hg10 mi
6:53 pm72 °FSunny.9 mph44%30.09 "Hg10 mi
5:53 pm73 °FSunny.12 mph44%30.09 "Hg10 mi
4:53 pm77 °FSunny.10 mph33%30.07 "Hg10 mi
3:53 pm77 °FPassing clouds.8 mph36%30.08 "Hg10 mi
2:53 pm77 °FPassing clouds.13 mph36%30.10 "Hg10 mi
1:53 pm75 °FPassing clouds.N/A39%30.11 "Hg10 mi
12:53 pm74 °FPassing clouds.10 mph38%30.13 "Hg10 mi
11:53 am73 °FSunny.12 mph40%30.14 "Hg10 mi
10:53 am71 °FSunny.6 mph45%30.13 "Hg10 mi
9:53 am69 °FSunny.8 mph45%30.12 "Hg10 mi
8:53 am65 °FSunny.6 mph63%30.11 "Hg10 mi
7:53 am59 °FPassing clouds.No wind78%30.10 "Hg10 mi
6:53 am55 °FSunny.3 mph77%30.08 "Hg10 mi
5:53 am57 °FClear.6 mph69%30.06 "Hg10 mi
4:53 am57 °FPassing clouds.7 mph72%30.04 "Hg10 mi
3:53 am58 °FClear.5 mph67%30.03 "Hg10 mi
2:53 am60 °FPartly cloudy.6 mph65%30.04 "Hg10 mi
1:53 am60 °FPartly cloudy.No wind65%30.05 "Hg10 mi
12:53 am59 °FPassing clouds.6 mph64%30.06 "Hg10 mi
Weather by CustomWeather, © 2019

See weather overview